Regional Weather Roundup
Issued by NWS

Home | Current Version | Previous Version | Graphics & Text | Print | Product List | Glossary On
Versions: 1 2 3 4 5 6 7 8 9 10 11 12 13 14 15 16 17 18 19 20 21 22 23 24 25 26 27 28 29 30 31 32 33 34 35 36 37 38 39 40 41 42 43 44 45 46 47 48 49 50
000
ASUS43 KTOP 080259
RWRKS

WEATHER ROUNDUP FOR KANSAS
NATIONAL WEATHER SERVICE GOODLAND KS
1000 PM CDT TUE JUL 07 2015

NOTE:  "FAIR" INDICATES FEW OR NO CLOUDS BELOW 12,000 FEET WITH NO
SIGNIFICANT WEATHER AND/OR OBSTRUCTIONS TO VISIBILITY.

KSZ001>006-013>018-027>032-041>047-080400-
NORTHWEST KANSAS

CITY           SKY/WX    TMP DP  RH WIND       PRES   REMARKS
GOODLAND       PTCLDY    63  45  51 SE6       30.11S
HAYS           CLEAR     64  45  48 E6        30.08S
HILL CITY      PTCLDY    65  49  56 NE8       30.09S
RUSSELL        CLEAR     61  51  70 E7        30.07R
$$

KSZ061>065-074>080-084>089-080400-
SOUTHWEST KANSAS

CITY           SKY/WX    TMP DP  RH WIND       PRES   REMARKS
DODGE CITY     PTCLDY    61  45  55 E3        30.09R
ELKHART          N/A     65  46  50 SE9         N/A
GARDEN CITY    PTCLDY    65  47  52 E7        30.09R
GREAT BEND     PTCLDY    64  48  55 E6        30.08S
LIBERAL        CLEAR     63  45  51 SE6       30.11S
$$

KSZ066>073-081>083-090>101-080400-
SOUTHEAST KANSAS

CITY           SKY/WX    TMP DP  RH WIND       PRES   REMARKS
CHANUTE        LGT RAIN  64  61  90 NE7       30.04R FOG
COFFEYVILLE    LGT RAIN  65  63  93 NE9       30.02R FOG
HUTCHINSON     CLOUDY    64  53  67 NE3       30.07R
MEDICINE LODGE   N/A     63  59  87 CALM      30.07R
NEWTON         CLOUDY    63  55  77 NE5       30.09R
PARSONS        LGT RAIN  65  64  97 CALM      30.04R FOG
WICHITA INTL   LGT RAIN  64  59  83 NE8       30.06R
WICHITA JABRA  CLOUDY    63  59  87 NE9       30.06R
WICHITA MCCONL LGT RAIN  64  61  88 NE12      30.06R
WINFIELD       LGT RAIN  63  62  97 NE9       30.05R FOG
$$

KSZ007>012-019>026-033>040-048>060-102>105-080400-
NORTHEAST KANSAS

CITY           SKY/WX    TMP DP  RH WIND       PRES   REMARKS
CONCORDIA      CLEAR     63  51  65 CALM      30.09R
EMPORIA        LGT RAIN  63  61  93 NE6       30.06R
LAWRENCE       CLOUDY    67  61  81 NE5       30.06R
MANHATTAN      MOCLDY    65  57  75 N3        30.07R
OLATHE IND     LGT RAIN  65  63  93 E3        30.07R FOG
OLATHE EXE     LGT RAIN  65  62  90 CALM      30.06R FOG
SALINA         MOCLDY    68  53  58 E3        30.08R
TOPEKA BILLARD CLOUDY    67  61  81 N5        30.06R
TOPEKA FORBES  CLOUDY    68  61  78 N3        30.06R
$$


USA.gov is the U.S. government's official web portal to all federal, state and local government web resources and services.